Location: Jefferson
(30.9666°N, 81.7901°W)
Time: 06:49:39
(UTC+00:00)

ARIANE 6 FM1 Upper Stage - Pass Details

Date: 23 September 2024
Orbit: 563 x 595 km, 62.0° (Epoch: 12 October)

Event Time Altitude Azimuth Distance (km) Brightness Sun altitude
Rises 00:45:49 0° 237° (WSW) 2,759 6.9 -18.5°
Reaches altitude 10° 00:48:20 10° 251° (WSW) 1,871 6.2 -19.0°
Maximum altitude 00:51:52 25° 308° (NW) 1,166 4.9 -19.8°
Drops below altitude 10° 00:55:26 10° 5° (N) 1,896 5.4 -20.5°
Sets 00:58:01 0° 18° (NNE) 2,805 6.2 -21.0°
